Wind_Speed
13 13 17 21 18 20 21 22 21 16 17 15 17 15 16 15 14 13 13 12 10 13 13 20 16 14 24 19 17 17 16 17 16 19 20 24 23 26 34 35 34 31 28 25
13 20 19 18 18 21 24 23 22 22 15 3 9 13 15 15 14 14 11 13 11 12 14 15 19 16 18 23 21 19 19 21 21 25 19 18 31 28 32 27 27 25 29 29
18 14 16 18 18 20 23 23 18 22 18 14 6 16 19 18 17 14 12 8 12 13 16 17 16 18 18 22 23 23 22 25 23 25 24 23 25 29 28 23 29 26 28 29
12 20 14 19 23 20 22 22 22 20 17 14 14 12 14 16 16 14 13 10 9 8 16 19 17 19 20 22 24 26 24 27 24 27 25 29 24 26 30 28 32 29 30 32
4 9 15 23 19 23 23 18 16 15 16 16 19 12 12 13 12 19 16 16 14 13 12 19 19 22 23 21 27 27 26 27 27 28 28 28 26 27 32 23 27 30 34 29
18 12 21 20 17 22 20 16 17 14 13 14 17 16 12 13 13 11 8 8 15 14 11 15 22 25 25 24 27 29 29 28 29 31 28 29 29 29 30 26 28 27 26 31
17 20 21 17 18 17 16 14 9 7 10 10 16 14 11 16 9 4 3 2 5 13 11 13 19 17 23 27 28 27 30 28 30 33 32 33 29 31 32 34 33 33 29 27
5 11 21 15 18 15 18 15 7 8 7 13 19 10 14 18 14 5 4 3 6 9 8 10 16 17 22 27 29 29 28 28 31 33 34 32 33 30 30 35 36 36 34 31
3 8 10 16 16 15 14 14 17 15 7 5 9 18 15 6 7 5 6 7 4 7 8 7 10 16 23 27 29 30 30 30 32 34 33 34 34 34 33 33 36 37 37 32
6 6 15 15 17 17 17 15 10 5 5 6 7 5 8 9 8 9 6 7 5 4 6 10 9 14 23 27 29 29 29 29 33 34 34 34 36 36 34 35 36 37 38 39
14 11 6 14 12 16 13 15 11 13 10 5 2 4 12 12 11 7 11 12 10 8 6 4 4 13 25 28 29 31 29 29 30 35 35 35 36 36 36 38 38 40 40 40
12 6 10 18 18 14 16 14 18 7 9 12 5 1 15 6 8 8 9 9 9 6 8 6 4 3 5 21 25 29 29 27 29 32 35 37 36 36 37 39 38 39 40 39
10 6 9 9 8 13 17 19 12 14 8 6 5 5 9 11 10 6 6 8 12 13 12 12 11 3 4 11 18 23 29 30 27 29 34 35 38 40 42 43 41 40 40 39
5 8 10 9 4 6 7 16 20 16 6 5 8 4 10 13 8 5 7 10 11 13 13 15 16 17 18 2 14 18 22 28 30 28 30 35 38 41 44 41 40 42 42 43
3 5 12 15 17 16 12 15 13 9 13 9 12 13 7 7 16 5 6 9 9 9 13 13 14 14 15 20 21 10 21 26 30 31 30 35 35 36 35 38 41 41 42 41
5 3 12 11 9 9 9 10 7 17 15 5 9 7 11 17 9 9 9 9 9 9 13 11 12 14 16 22 24 27 26 21 27 32 34 33 32 33 37 37 37 36 41 42
2 3 4 3 8 9 8 11 14 16 8 5 9 5 11 5 6 8 8 9 13 12 12 13 13 14 16 21 26 26 29 29 19 26 32 32 32 34 37 37 35 37 39 38
13 9 3 4 6 5 4 2 8 12 7 11 12 4 2 8 9 7 13 13 11 11 12 11 11 15 19 22 27 32 31 31 28 23 27 30 33 34 36 34 37 39 39 38
15 12 4 4 5 8 10 4 2 3 6 11 3 6 8 8 4 9 13 10 10 12 12 14 18 19 21 23 26 27 29 29 30 31 25 26 32 34 34 33 37 37 34 35
17 14 10 7 4 3 7 3 2 1 2 10 11 9 9 8 3 6 3 7 10 11 19 21 22 19 20 23 26 24 24 27 26 33 33 37 27 33 33 34 33 33 32 30
15 12 13 11 8 6 6 3 3 6 5 12 13 12 10 7 7 9 7 9 10 16 20 25 24 22 22 24 25 23 23 22 31 36 34 33 30 20 32 32 31 30 26 27
13 10 8 10 9 12 3 4 5 10 13 10 9 8 9 10 12 12 15 15 16 16 20 23 21 22 23 26 25 24 23 27 27 29 28 25 24 19 4 18 17 19 21 22
3 9 7 9 8 5 6 14 12 12 12 7 9 11 10 10 10 12 12 15 15 19 21 23 22 22 23 25 25 25 25 25 22 19 22 21 16 12 10 11 18 22 23 22
4 14 10 2 8 8 12 9 14 11 12 10 11 11 11 9 11 11 11 13 13 18 19 19 19 19 21 23 22 22 24 20 16 20 21 23 24 22 19 19 18 18 21 20
3 4 4 7 3 9 15 6 14 15 13 12 12 13 11 10 10 11 12 12 13 16 18 18 18 18 20 22 22 23 22 17 16 23 22 24 24 26 28 31 24 30 25 20
3 3 2 4 7 12 9 13 14 13 12 10 12 11 12 12 12 11 10 12 13 15 16 17 19 21 22 22 24 25 25 20 18 25 22 25 24 26 24 28 40 45 48 45
Wind_Direction
229 230 229 221 226 254 270 270 277 259 241 249 210 237 259 237 240 212 201 214 234 177 176 167 165 161 149 162 177 170 167 172 170 162 139 140 135 136 152 165 167 176 186 183
275 235 229 232 237 236 254 263 272 274 279 202 278 258 267 256 239 231 214 192 211 183 159 153 156 173 171 164 176 174 171 169 170 162 148 135 143 142 149 163 169 167 178 182
249 263 229 241 236 245 249 252 254 264 279 274 225 266 262 260 250 236 205 228 204 192 166 158 163 180 181 165 169 178 171 172 170 173 161 147 146 150 163 163 170 173 176 169
236 269 260 254 241 242 247 243 243 258 266 261 236 260 272 230 236 222 225 195 221 209 170 161 168 174 186 173 168 178 175 174 171 172 166 162 167 169 178 175 171 177 177 187
231 246 244 243 245 223 254 255 257 257 253 265 265 270 269 288 247 215 202 197 201 196 181 164 168 174 179 183 167 177 183 180 177 175 179 176 178 180 184 189 180 183 192 185
258 241 253 272 238 260 279 250 257 258 258 244 248 258 264 260 248 244 191 197 195 181 180 164 163 170 173 181 167 173 181 186 181 182 179 183 185 181 186 192 197 202 198 201
244 255 253 248 252 244 259 266 227 229 237 245 245 245 237 264 288 8 111 145 168 155 162 164 158 168 175 177 172 171 179 188 185 184 186 189 187 188 194 195 197 204 211 208
253 246 246 237 238 225 236 256 228 201 233 242 229 233 234 229 254 61 346 231 109 126 146 168 167 169 177 176 172 177 181 190 192 190 190 189 193 193 195 199 202 206 212 216
229 249 217 229 243 211 220 255 255 263 266 294 273 220 241 163 131 167 203 187 156 150 152 164 170 169 176 178 181 182 185 189 195 198 192 193 194 194 196 201 204 209 212 216
235 275 287 227 202 227 207 233 261 256 230 236 266 192 206 209 168 197 150 172 163 118 147 174 176 171 178 179 182 185 190 196 192 197 200 197 199 200 198 203 205 208 214 218
247 238 272 287 205 216 210 229 225 252 230 236 240 250 7 31 55 67 55 58 63 59 66 17 195 181 179 179 181 185 193 195 197 192 199 203 204 204 203 207 207 208 212 212
309 265 234 239 257 212 263 250 220 229 228 243 253 269 153 171 64 34 28 25 67 21 34 94 40 49 187 175 180 183 191 205 200 195 196 203 206 208 208 211 211 210 212 212
354 253 251 260 242 256 216 246 252 230 241 226 257 231 231 125 127 91 30 21 23 16 11 4 12 113 165 176 187 191 191 197 212 203 198 200 204 206 211 214 213 213 216 216
355 276 270 261 205 353 296 220 216 223 230 215 227 162 343 341 333 73 74 55 25 5 20 18 7 5 5 303 194 203 199 199 203 217 209 205 207 210 213 214 214 215 215 217
82 290 315 295 303 209 219 251 252 219 228 238 235 245 266 293 287 245 51 55 38 22 28 15 1 351 352 353 355 312 217 203 204 210 220 222 215 216 216 217 217 216 217 219
139 277 323 305 285 278 273 208 238 284 211 227 188 307 238 233 247 44 34 21 13 27 31 9 358 5 356 347 342 339 341 226 205 208 219 224 224 219 221 221 219 218 219 221
162 270 331 271 314 301 267 252 190 220 261 232 247 256 29 28 39 41 16 13 42 23 17 17 9 7 353 343 333 331 327 324 294 215 219 225 224 223 223 222 220 222 223 221
267 274 260 289 313 228 233 33 258 246 223 241 258 327 154 39 28 13 54 52 33 17 27 18 17 359 356 355 355 343 335 327 315 289 232 227 226 229 228 221 220 223 223 221
227 234 230 251 235 307 302 222 280 205 233 253 166 136 99 72 7 58 44 40 30 20 19 22 12 4 1 5 350 338 329 326 324 323 304 248 229 227 231 227 224 226 224 223
219 213 221 226 235 261 227 143 158 329 125 83 86 65 50 49 69 84 328 30 19 24 25 12 8 6 10 359 349 339 335 329 341 339 332 327 280 226 225 227 228 225 224 227
202 200 213 226 243 251 274 171 139 202 79 42 44 47 42 25 350 328 10 22 21 33 23 13 3 9 8 356 349 343 337 340 331 327 327 338 333 293 223 225 224 221 210 197
189 191 205 225 244 249 245 268 176 92 63 51 25 54 49 15 7 6 18 31 31 22 15 9 4 1 2 355 351 345 340 333 332 330 328 335 333 346 21 164 168 159 152 137
245 208 200 190 214 297 87 100 86 89 102 55 38 32 24 22 6 9 11 31 26 21 13 2 3 357 0 356 355 344 336 336 342 352 353 354 356 15 29 101 120 119 137 122
302 300 226 309 254 203 111 110 94 85 76 60 43 35 31 15 10 13 23 29 23 18 10 4 3 4 358 356 356 350 341 347 10 27 19 20 20 25 50 61 75 93 107 107
216 348 259 227 88 46 47 25 73 69 59 54 53 50 39 32 31 30 38 29 21 19 12 14 12 12 7 4 3 1 360 12 35 49 38 34 36 39 50 53 57 73 71 96
349 141 248 77 45 106 104 62 55 66 60 48 57 53 49 43 51 52 53 36 30 31 26 25 23 21 15 14 12 14 20 30 41 58 53 50 47 48 46 69 75 69 81 81
Height
734 737 731 728 724 721 711 702 696 678 666 671 678 683 676 667 669 672 675 678 677 682 688 701 710 718 723 729 734 737 739 742 744 748 750 753 756 759 766 775 782 790 794 798
738 727 719 717 713 716 714 710 701 683 668 677 677 682 672 665 662 663 664 669 673 675 683 695 707 715 720 727 732 736 738 741 745 748 752 754 758 764 771 779 782 788 792 798
739 718 710 710 711 717 710 707 700 696 677 670 682 691 680 663 655 654 654 658 661 668 677 689 702 711 717 722 728 734 737 741 744 749 754 758 762 767 773 778 783 788 793 797
740 728 719 723 711 709 710 689 688 691 693 704 674 704 670 658 658 653 652 657 660 662 667 679 693 705 712 718 725 731 736 739 744 748 753 757 762 766 772 775 780 786 791 797
738 724 728 718 710 701 704 681 687 687 693 695 692 697 678 652 655 649 645 648 652 655 661 671 685 697 708 715 719 727 733 738 741 746 751 756 761 766 772 776 779 784 789 793
724 717 719 704 692 692 690 687 690 692 693 711 697 695 686 667 651 641 636 638 643 648 655 663 677 690 701 710 716 722 729 734 738 743 748 753 758 762 769 774 778 781 785 788
720 716 703 699 704 695 698 700 714 722 715 713 685 688 679 653 639 639 638 638 637 644 652 660 671 683 693 702 710 717 725 730 734 738 744 749 755 759 763 768 772 777 780 783
722 729 708 693 695 699 699 699 705 725 718 701 672 682 667 641 633 633 635 637 637 644 650 656 664 675 687 695 705 712 719 726 730 734 739 744 750 755 760 764 768 773 776 779
718 707 687 686 689 689 704 711 683 691 697 709 685 655 642 633 639 639 641 639 642 644 648 655 660 669 679 689 698 706 712 719 725 729 733 738 743 748 752 758 763 767 771 775
703 716 687 679 680 683 692 691 708 699 725 726 681 660 665 647 647 643 643 644 643 642 646 651 656 663 672 682 691 700 707 712 717 724 728 731 736 741 744 750 754 758 763 768
696 703 700 683 680 688 691 697 703 703 694 705 704 689 665 659 651 651 650 647 649 650 651 652 653 656 663 672 681 691 699 705 711 717 723 726 729 733 738 741 744 747 753 756
702 693 700 697 677 672 679 683 690 706 706 691 693 682 653 660 659 658 657 652 651 651 652 653 655 658 660 667 675 683 692 699 703 708 714 720 724 727 729 731 735 740 743 748
716 698 704 692 683 680 683 683 677 687 702 719 707 698 654 654 659 660 662 659 659 658 659 657 658 659 660 665 671 677 683 689 697 699 703 709 713 715 716 720 725 730 735 738
717 712 702 696 694 705 705 675 682 684 714 711 709 687 682 674 667 662 663 665 668 668 667 669 669 669 671 666 667 671 677 682 688 694 695 698 702 704 705 710 716 720 722 726
720 722 703 690 684 681 682 683 672 680 696 704 687 680 683 687 679 664 662 668 674 676 678 682 681 677 676 675 674 672 670 673 679 684 690 688 692 698 702 704 706 708 714 716
720 723 716 700 685 676 677 674 691 689 665 668 679 693 675 678 661 665 670 672 677 681 687 689 686 684 683 679 677 675 673 668 669 674 677 680 686 689 692 694 697 701 703 706
719 721 724 708 696 687 689 675 676 686 661 664 678 669 665 664 667 671 675 676 682 686 689 690 691 691 690 688 683 678 674 670 667 665 667 671 675 678 680 684 689 690 692 696
715 715 725 719 716 706 673 657 657 664 662 663 663 664 666 669 671 673 677 685 689 690 691 694 695 696 694 692 689 684 678 672 666 663 659 661 664 666 669 673 676 678 681 683
707 712 722 719 707 699 680 666 667 669 671 660 664 667 668 672 677 683 685 689 692 693 693 695 697 698 698 697 696 692 683 676 670 664 656 652 652 654 659 662 664 667 673 675
697 702 713 707 710 709 672 666 662 662 681 662 667 674 678 680 695 701 694 692 694 697 697 700 700 701 701 702 700 694 686 680 674 670 662 653 645 641 644 649 654 658 664 669
695 702 706 708 707 689 668 662 665 685 698 681 681 687 689 694 695 692 689 692 693 696 702 706 705 703 705 706 702 698 692 684 680 672 664 654 644 636 633 638 643 649 654 656
687 699 702 703 703 701 666 667 680 691 694 695 698 695 696 696 696 696 696 697 701 705 709 713 712 711 711 708 704 699 694 690 682 675 668 660 651 644 635 631 634 640 648 657
703 682 687 686 686 671 666 677 683 688 696 703 702 700 700 703 705 702 705 707 712 717 720 721 720 717 717 713 709 703 698 690 683 675 672 667 659 652 649 640 640 643 649 658
698 686 677 685 674 672 681 685 687 693 698 703 707 706 709 712 712 713 714 722 726 730 732 731 729 725 723 719 715 710 702 694 686 678 677 674 670 663 658 654 651 651 652 660
695 701 681 679 684 695 700 696 694 699 707 711 712 716 719 720 721 723 729 734 737 739 738 736 735 731 727 723 717 711 704 696 691 682 684 683 681 678 674 669 665 658 667 668
683 696 690 690 693 697 706 702 705 711 715 718 718 722 725 726 728 732 739 743 744 744 743 741 738 734 730 727 721 713 707 701 698 687 691 690 692 689 694 686 680 685 676 679